Regional Weather Roundup
Issued by NWS Northern Indiana

Home | Current Version | Previous Version | Graphics & Text | Print | Product List | Glossary On
Versions: 1 2 3 4 5 6 7 8 9 10 11 12 13 14 15 16 17 18 19 20 21 22 23 24 25 26 27 28 29 30 31 32 33 34 35 36 37 38 39 40 41 42 43 44 45 46 47 48 49 50
000
ASUS43 KIWX 281200
RWRIWX

KIWX WEATHER ROUNDUP
NATIONAL WEATHER SERVICE NORTHERN INDIANA
800 AM EDT THU APR 28 2016

NOTE: "FAIR" INDICATES FEW OR NO CLOUDS BELOW 12,000 FEET WITH NO
SIGNIFICANT WEATHER AND/OR OBSTRUCTIONS TO VISIBILITY.

* THESE STATIONS ARE NOT UNDER NWS QUALITY CONTROL. THEY ALSO MAY NOT
  REPORT WEATHER SUCH AS PRECIPITATION OR FOG.

INZ001>027-281300-
NORTHERN INDIANA

CITY           SKY/WX    TMP DP  RH WIND       PRES   REMARKS
GARY*          CLOUDY    48  48 100 E10       29.81F
VALPARAISO     LGT RAIN  44  42  93 VRB6G29   29.83R
SOUTH BEND     CLOUDY    43  39  86 E12       29.87S
6HR MIN TEMP:  42; 6HR MAX TEMP:  48; 6HR PCP:  0.08;

ELKHART*       CLOUDY    43  39  87 E12G18    29.90R
GOSHEN         LGT RAIN  42  37  82 E13       29.89R
6HR MIN TEMP:  42; 6HR MAX TEMP:  46; 6HR PCP:  0.03;

MONTICELLO*    CLOUDY    46  42  87 SE6       29.80R
6HR MIN TEMP:  45; 6HR MAX TEMP:  46; 6HR PCP:  0.07;

WARSAW*        LGT RAIN  43  41  93 E12       29.87F
ANGOLA*        CLOUDY    39  36  87 E12       29.91R
FORT WAYNE     LGT RAIN  44  40  85 E15       29.90R FOG
6HR MIN TEMP:  42; 6HR MAX TEMP:  44; 6HR PCP:  0.47;


$$
INZ028>050-281300-
CENTRAL INDIANA

CITY           SKY/WX    TMP DP  RH WIND       PRES   REMARKS
LAFAYETTE      CLOUDY    47  46  97 E8        29.78R
6HR MIN TEMP:  46; 6HR MAX TEMP:  48; 6HR PCP:  0.12;

KOKOMO*        CLOUDY    45  39  81 E13G24    29.82S
6HR MIN TEMP:  45; 6HR MAX TEMP:  46; 6HR PCP:  0.09;

MUNCIE*        RAIN      46  43  89 E12       29.85F FOG
6HR MIN TEMP:  46; 6HR MAX TEMP:  48; 6HR PCP:  0.21;

INDIANAPOLIS   CLOUDY    51  49  92 E14       29.78S FOG
6HR MIN TEMP:  51; 6HR MAX TEMP:  58; 6HR PCP:  0.64;


$$
MIZ043>046-050>051-056>058-064>065-071>073-077>080-281300-
SOUTHWEST LOWER MICHIGAN

CITY           SKY/WX    TMP DP  RH WIND       PRES   REMARKS
BATTLE CREEK   LGT RAIN  38  30  73 E8        29.94R
6HR MIN TEMP:  38; 6HR MAX TEMP:  51; 6HR PCP:  0.09;

BENTON HARBOR  CLOUDY    43  38  82 E10       29.88S
6HR MIN TEMP:  43; 6HR MAX TEMP:  50; 6HR PCP:  0.22;

COLDWATER*     CLOUDY    38  34  85 E9        29.93R
6HR MIN TEMP:  38; 6HR MAX TEMP:  48;

HILLSDALE*     LGT RAIN  39  31  75 E12       29.93R
6HR MIN TEMP:  39; 6HR MAX TEMP:  46;

HOLLAND        LGT RAIN  40  27  59 E17G25    29.92R
6HR MIN TEMP:  40; 6HR MAX TEMP:  51; 6HR PCP:  0.06;

GRAND RAPIDS   RAIN      38  27  64 E10       29.95S
6HR MIN TEMP:  38; 6HR MAX TEMP:  49; 6HR PCP:  0.09;

KALAMAZOO      CLOUDY    43  27  53 E12G17    29.92R
6HR MIN TEMP:  43; 6HR MAX TEMP:  52; 6HR PCP: TRACE;

STURGIS*       CLOUDY    40  35  80 E17G24    29.89S
6HR MIN TEMP:  40; 6HR MAX TEMP:  46; 6HR PCP:  0.09;

THREE RIVERS*  CLOUDY    42  32  69 E14G22    29.91R
6HR MIN TEMP:  42; 6HR MAX TEMP:  48;


$$
OHZ001>008-015>018-024>025-281300-
NORTHWEST OHIO

CITY           SKY/WX    TMP DP  RH WIND       PRES   REMARKS
DEFIANCE       CLOUDY    45  39  79 E13G21    29.91R
6HR MIN TEMP:  44; 6HR MAX TEMP:  49; 6HR PCP:  0.23;

FINDLAY        LGT RAIN  44  37  76 NE13      29.88R
6HR MIN TEMP:  44; 6HR MAX TEMP:  51; 6HR PCP:  0.37;

TOLEDO EXPRESS LGT RAIN  43  39  86 E15       29.93R FOG
6HR MIN TEMP:  43; 6HR MAX TEMP:  46; 6HR PCP:  0.14;

TOLEDO METCALF LGT RAIN  44  38  79 NE13      29.94S
6HR MIN TEMP:  44; 6HR MAX TEMP:  47; 6HR PCP:  0.06;

LIMA           CLOUDY    44  41  89 NE12      29.87R
6HR MIN TEMP:  43; 6HR MAX TEMP:  49; 6HR PCP:  0.43;


$$
AND FOR LAKE MICHIGAN COASTAL AND OPEN LAKE BUOY OBSERVATIONS

STATION/POSITION TEMP    WIND        PRES    VSBY  WAVE
                 AIR SEA DIR/SP/G                  HT/PER
                 (F)     (DEG/KT/KT) (MB)    (MI)  (FT/S)
CALUMET HARBOR    44      50/ 13/ 20 1009.2R
BURNS HARBOR      46      40/  8/ 15 1010.8S
SAINT JOSEPH      44      CALM  /  3 1012.5R
SOUTH LAKE BUOY   38 40   80/ 21/ 25 1011.9          3/ 4
4 MI NW BRIDGMAN  46 46  120/ 12/ 14   N/A           3/ 7

$$
&&




USA.gov is the U.S. government's official web portal to all federal, state and local government web resources and services.